Location: Newark
(40.3500°N, 15.2333°E)
Time: 06:47:21
(UTC+00:00)

Altair - Pass Details

Date: 19 January 2020
Orbit: 1502 x 1682 km, 47.2° (Epoch: 17 February)

Event Time Altitude Azimuth Distance (km) Brightness Sun altitude
Rises 16:34:47 0° 297° (WNW) 4,902 10.8 -6.7°
Reaches altitude 10° 16:38:18 10° 289° (WNW) 3,892 10.4 -7.3°
Maximum altitude 16:46:56 35° 229° (SW) 2,371 9.2 -8.9°
Drops below altitude 10° 16:55:17 10° 167° (SSE) 3,754 9.6 -10.4°
Sets 16:58:38 0° 159° (SSE) 4,710 10.0 -11.0°
